QPF
0.00 0.00 0.00 0.00 0.00 0.00 0.00 0.00 0.00 0.00 0.00 0.00 0.00 0.00 0.00 0.00 0.00 0.00 0.00 0.00 0.00 0.00 0.00 0.00 0.00 0.00 0.00 0.00 0.00 0.00 0.01 0.01 0.01 0.01 0.01 0.01 0.01 0.01 0.01 0.01 0.01 0.01 0.00 0.00 0.00 0.00 0.00 0.00 0.00
0.00 0.00 0.00 0.00 0.00 0.00 0.00 0.00 0.00 0.00 0.00 0.00 0.00 0.00 0.00 0.00 0.00 0.00 0.00 0.00 0.00 0.00 0.00 0.00 0.00 0.00 0.00 0.00 0.00 0.00 0.01 0.01 0.01 0.01 0.01 0.01 0.01 0.01 0.01 0.01 0.00 0.00 0.00 0.00 0.00 0.00 0.00 0.00 0.00
0.00 0.00 0.00 0.00 0.00 0.00 0.00 0.00 0.00 0.00 0.00 0.00 0.00 0.00 0.00 0.00 0.00 0.00 0.00 0.00 0.00 0.00 0.00 0.00 0.00 0.00 0.00 0.00 0.00 0.00 0.01 0.01 0.01 0.01 0.01 0.01 0.01 0.01 0.01 0.00 0.00 0.00 0.00 0.00 0.00 0.00 0.00 0.00 0.00
0.00 0.00 0.00 0.00 0.00 0.00 0.01 0.00 0.00 0.00 0.00 0.00 0.00 0.00 0.00 0.00 0.00 0.00 0.00 0.00 0.00 0.00 0.00 0.00 0.00 0.00 0.00 0.00 0.00 0.00 0.00 0.00 0.01 0.00 0.00 0.00 0.00 0.00 0.00 0.00 0.00 0.00 0.00 0.00 0.00 0.00 0.00 0.00 0.00
0.00 0.00 0.00 0.00 0.00 0.00 0.00 0.00 0.00 0.00 0.00 0.00 0.00 0.00 0.00 0.00 0.00 0.00 0.00 0.00 0.00 0.00 0.00 0.00 0.00 0.00 0.00 0.00 0.00 0.00 0.00 0.00 0.00 0.00 0.00 0.00 0.00 0.00 0.00 0.00 0.00 0.00 0.00 0.00 0.00 0.00 0.00 0.00 0.00
0.00 0.00 0.00 0.00 0.00 0.00 0.00 0.00 0.00 0.00 0.00 0.00 0.00 0.00 0.00 0.00 0.00 0.00 0.00 0.00 0.00 0.00 0.00 0.00 0.00 0.00 0.00 0.00 0.00 0.00 0.00 0.00 0.00 0.00 0.00 0.00 0.00 0.00 0.00 0.00 0.00 0.00 0.00 0.00 0.00 0.00 0.00 0.00 0.00
0.01 0.01 0.00 0.00 0.00 0.00 0.00 0.00 0.00 0.00 0.00 0.00 0.00 0.00 0.00 0.00 0.00 0.00 0.00 0.00 0.00 0.00 0.00 0.00 0.00 0.00 0.00 0.00 0.00 0.00 0.00 0.00 0.00 0.00 0.00 0.00 0.00 0.00 0.00 0.00 0.00 0.00 0.00 0.00 0.00 0.00 0.00 0.00 0.00
0.01 0.01 0.00 0.00 0.00 0.00 0.00 0.00 0.00 0.00 0.00 0.00 0.00 0.00 0.00 0.00 0.00 0.00 0.00 0.00 0.00 0.00 0.00 0.00 0.00 0.00 0.00 0.00 0.00 0.00 0.00 0.00 0.00 0.00 0.00 0.00 0.00 0.00 0.00 0.00 0.00 0.00 0.00 0.00 0.00 0.00 0.00 0.00 0.00
0.01 0.01 0.01 0.00 0.00 0.00 0.00 0.00 0.00 0.00 0.00 0.00 0.00 0.00 0.00 0.00 0.00 0.00 0.00 0.00 0.00 0.00 0.00 0.00 0.00 0.00 0.00 0.00 0.00 0.00 0.00 0.00 0.00 0.00 0.00 0.00 0.00 0.00 0.00 0.00 0.00 0.00 0.00 0.00 0.00 0.00 0.00 0.00 0.00
0.01 0.01 0.00 0.00 0.00 0.00 0.00 0.00 0.00 0.00 0.00 0.00 0.00 0.00 0.00 0.00 0.00 0.00 0.00 0.00 0.00 0.00 0.00 0.00 0.00 0.00 0.00 0.00 0.00 0.00 0.00 0.00 0.00 0.00 0.00 0.00 0.00 0.00 0.00 0.00 0.00 0.00 0.00 0.00 0.00 0.00 0.00 0.00 0.00
0.01 0.00 0.00 0.00 0.00 0.00 0.00 0.00 0.00 0.00 0.00 0.00 0.00 0.00 0.00 0.00 0.00 0.00 0.00 0.00 0.00 0.00 0.00 0.00 0.00 0.00 0.00 0.00 0.00 0.00 0.00 0.00 0.00 0.00 0.00 0.00 0.00 0.00 0.00 0.00 0.00 0.00 0.00 0.00 0.00 0.00 0.00 0.00 0.00
0.02 0.00 0.00 0.00 0.00 0.00 0.00 0.00 0.00 0.00 0.00 0.00 0.00 0.00 0.00 0.00 0.00 0.00 0.00 0.00 0.00 0.00 0.00 0.00 0.00 0.00 0.00 0.00 0.00 0.00 0.00 0.00 0.00 0.00 0.00 0.00 0.00 0.00 0.00 0.00 0.00 0.00 0.00 0.00 0.00 0.00 0.00 0.00 0.00
0.03 0.01 0.00 0.00 0.00 0.00 0.00 0.00 0.00 0.00 0.00 0.00 0.00 0.00 0.00 0.00 0.00 0.00 0.00 0.00 0.00 0.00 0.00 0.00 0.00 0.00 0.00 0.00 0.00 0.00 0.00 0.00 0.00 0.00 0.00 0.00 0.00 0.00 0.00 0.00 0.00 0.00 0.00 0.00 0.00 0.00 0.00 0.00 0.00
0.03 0.02 0.01 0.01 0.00 0.00 0.00 0.00 0.00 0.00 0.00 0.00 0.00 0.00 0.00 0.00 0.00 0.00 0.00 0.00 0.00 0.00 0.00 0.00 0.00 0.00 0.00 0.00 0.00 0.00 0.00 0.00 0.00 0.00 0.00 0.00 0.00 0.00 0.00 0.00 0.00 0.00 0.00 0.00 0.00 0.00 0.00 0.00 0.00
0.01 0.03 0.03 0.02 0.00 0.00 0.00 0.00 0.00 0.00 0.00 0.00 0.00 0.00 0.00 0.00 0.00 0.00 0.00 0.00 0.00 0.00 0.00 0.00 0.00 0.00 0.00 0.00 0.00 0.00 0.00 0.00 0.00 0.00 0.00 0.00 0.00 0.00 0.00 0.00 0.00 0.00 0.00 0.00 0.00 0.00 0.00 0.00 0.00
0.02 0.03 0.04 0.03 0.01 0.00 0.01 0.00 0.00 0.00 0.00 0.00 0.00 0.00 0.00 0.00 0.00 0.00 0.00 0.00 0.00 0.00 0.00 0.00 0.00 0.00 0.00 0.00 0.00 0.00 0.00 0.00 0.00 0.00 0.00 0.00 0.00 0.00 0.00 0.00 0.00 0.00 0.00 0.00 0.00 0.00 0.00 0.00 0.00
0.04 0.04 0.03 0.02 0.02 0.01 0.01 0.00 0.00 0.00 0.00 0.00 0.00 0.00 0.00 0.00 0.00 0.00 0.00 0.00 0.00 0.00 0.00 0.00 0.00 0.00 0.00 0.00 0.00 0.00 0.00 0.00 0.00 0.00 0.00 0.00 0.00 0.00 0.00 0.00 0.00 0.00 0.00 0.00 0.00 0.00 0.00 0.00 0.00
0.04 0.02 0.02 0.01 0.02 0.01 0.01 0.00 0.00 0.00 0.00 0.00 0.00 0.00 0.00 0.00 0.00 0.00 0.00 0.00 0.00 0.00 0.00 0.00 0.00 0.00 0.00 0.00 0.00 0.00 0.00 0.00 0.00 0.00 0.00 0.00 0.00 0.00 0.00 0.00 0.00 0.00 0.00 0.00 0.00 0.00 0.00 0.00 0.00
0.02 0.02 0.01 0.01 0.01 0.01 0.01 0.00 0.00 0.00 0.00 0.00 0.00 0.00 0.00 0.00 0.00 0.00 0.00 0.00 0.00 0.00 0.00 0.00 0.00 0.00 0.00 0.00 0.00 0.00 0.00 0.00 0.00 0.00 0.00 0.00 0.00 0.00 0.00 0.00 0.00 0.00 0.00 0.00 0.00 0.00 0.00 0.00 0.00
0.02 0.03 0.01 0.01 0.00 0.01 0.01 0.00 0.00 0.00 0.00 0.00 0.00 0.00 0.00 0.00 0.00 0.00 0.00 0.00 0.00 0.00 0.00 0.00 0.00 0.00 0.00 0.00 0.00 0.00 0.00 0.00 0.00 0.00 0.00 0.00 0.00 0.00 0.00 0.00 0.00 0.00 0.00 0.00 0.00 0.00 0.01 0.01 0.01
0.02 0.02 0.02 0.01 0.01 0.01 0.01 0.01 0.00 0.00 0.00 0.00 0.00 0.00 0.00 0.00 0.00 0.00 0.00 0.00 0.00 0.00 0.00 0.00 0.00 0.00 0.00 0.00 0.00 0.00 0.00 0.00 0.00 0.00 0.00 0.00 0.00 0.00 0.00 0.00 0.00 0.01 0.01 0.01 0.01 0.01 0.01 0.01 0.01
0.02 0.01 0.01 0.02 0.03 0.03 0.02 0.02 0.00 0.00 0.00 0.00 0.00 0.00 0.00 0.00 0.00 0.00 0.00 0.00 0.00 0.00 0.00 0.00 0.00 0.00 0.00 0.00 0.00 0.00 0.00 0.00 0.00 0.00 0.00 0.00 0.00 0.00 0.00 0.00 0.01 0.01 0.01 0.01 0.01 0.01 0.01 0.02 0.01
0.01 0.01 0.01 0.02 0.03 0.04 0.03 0.03 0.01 0.00 0.00 0.00 0.00 0.00 0.00 0.00 0.00 0.00 0.00 0.00 0.00 0.00 0.00 0.00 0.00 0.00 0.00 0.00 0.00 0.00 0.00 0.00 0.00 0.00 0.00 0.00 0.00 0.00 0.00 0.00 0.00 0.01 0.01 0.01 0.01 0.01 0.02 0.02 0.02
0.02 0.02 0.03 0.04 0.06 0.08 0.03 0.02 0.01 0.00 0.00 0.00 0.00 0.00 0.00 0.00 0.00 0.00 0.00 0.00 0.00 0.00 0.00 0.00 0.00 0.00 0.00 0.00 0.00 0.00 0.00 0.00 0.00 0.00 0.00 0.00 0.00 0.00 0.00 0.00 0.00 0.01 0.01 0.01 0.01 0.01 0.01 0.02 0.02
0.04 0.06 0.11 0.12 0.12 0.07 0.01 0.01 0.01 0.00 0.00 0.00 0.00 0.00 0.00 0.00 0.00 0.00 0.00 0.00 0.00 0.00 0.00 0.00 0.00 0.00 0.00 0.00 0.00 0.00 0.00 0.00 0.00 0.00 0.00 0.00 0.00 0.00 0.00 0.00 0.01 0.01 0.01 0.01 0.01 0.01 0.02 0.02 0.02
0.03 0.05 0.08 0.08 0.05 0.02 0.01 0.00 0.00 0.00 0.00 0.00 0.00 0.00 0.00 0.00 0.00 0.00 0.00 0.00 0.00 0.00 0.00 0.00 0.00 0.00 0.00 0.01 0.01 0.01 0.01 0.00 0.00 0.00 0.00 0.00 0.00 0.00 0.00 0.00 0.00 0.01 0.01 0.01 0.01 0.02 0.02 0.03 0.02
0.03 0.04 0.04 0.05 0.04 0.03 0.02 0.01 0.00 0.00 0.00 0.00 0.00 0.00 0.00 0.00 0.00 0.00 0.00 0.00 0.00 0.00 0.00 0.00 0.00 0.00 0.00 0.00 0.01 0.01 0.01 0.01 0.01 0.01 0.00 0.00 0.00 0.00 0.00 0.00 0.00 0.01 0.01 0.01 0.01 0.02 0.02 0.02 0.02
0.03 0.04 0.07 0.11 0.09 0.05 0.02 0.01 0.01 0.00 0.00 0.00 0.00 0.00 0.00 0.00 0.00 0.00 0.00 0.00 0.00 0.00 0.00 0.00 0.00 0.00 0.00 0.00 0.00 0.00 0.00 0.01 0.01 0.01 0.01 0.01 0.00 0.00 0.00 0.00 0.00 0.00 0.00 0.01 0.01 0.01 0.02 0.02 0.02
0.04 0.05 0.08 0.11 0.10 0.06 0.04 0.02 0.01 0.00 0.00 0.00 0.00 0.00 0.00 0.00 0.00 0.00 0.00 0.00 0.00 0.00 0.00 0.00 0.00 0.00 0.00 0.00 0.00 0.00 0.00 0.01 0.01 0.01 0.01 0.01 0.01 0.00 0.00 0.00 0.00 0.00 0.01 0.01 0.01 0.02 0.02 0.03 0.03
0.03 0.05 0.08 0.12 0.10 0.07 0.05 0.03 0.01 0.00 0.00 0.00 0.00 0.00 0.00 0.00 0.00 0.00 0.00 0.00 0.00 0.00 0.00 0.00 0.00 0.00 0.00 0.00 0.00 0.00 0.00 0.00 0.01 0.01 0.01 0.01 0.01 0.01 0.01 0.01 0.01 0.01 0.01 0.01 0.01 0.02 0.02 0.02 0.02
MSLP
1012.59 1013.20 1014.08 1015.05 1015.98 1016.74 1017.23 1017.43 1017.40 1017.22 1017.00 1016.85 1016.82 1016.94 1017.19 1017.50 1017.80 1018.03 1018.15 1018.18 1018.16 1018.14 1018.16 1018.28 1018.49 1018.78 1019.10 1019.40 1019.65 1019.83 1019.93 1020.00 1020.05 1020.13 1020.25 1020.41 1020.59 1020.75 1020.87 1020.93 1020.93 1020.89 1020.83 1020.79 1020.78 1020.82 1020.91 1021.02 1021.15
1013.01 1013.73 1014.66 1015.64 1016.51 1017.15 1017.48 1017.51 1017.31 1016.97 1016.63 1016.40 1016.33 1016.44 1016.69 1017.03 1017.36 1017.63 1017.81 1017.89 1017.93 1017.96 1018.04 1018.20 1018.45 1018.76 1019.09 1019.40 1019.66 1019.85 1019.99 1020.08 1020.18 1020.31 1020.47 1020.67 1020.87 1021.05 1021.18 1021.24 1021.25 1021.21 1021.15 1021.11 1021.10 1021.14 1021.22 1021.31 1021.40
1013.60 1014.38 1015.30 1016.21 1016.96 1017.44 1017.61 1017.48 1017.13 1016.70 1016.30 1016.03 1015.96 1016.09 1016.37 1016.73 1017.09 1017.39 1017.60 1017.72 1017.79 1017.87 1017.99 1018.19 1018.46 1018.78 1019.12 1019.43 1019.68 1019.88 1020.02 1020.14 1020.27 1020.43 1020.62 1020.84 1021.06 1021.25 1021.39 1021.45 1021.46 1021.43 1021.39 1021.37 1021.37 1021.42 1021.49 1021.57 1021.64
1014.29 1015.06 1015.92 1016.70 1017.29 1017.59 1017.59 1017.32 1016.89 1016.41 1016.01 1015.77 1015.74 1015.91 1016.22 1016.60 1016.97 1017.28 1017.50 1017.65 1017.75 1017.87 1018.02 1018.25 1018.54 1018.87 1019.20 1019.49 1019.73 1019.91 1020.05 1020.18 1020.32 1020.49 1020.70 1020.93 1021.16 1021.35 1021.48 1021.55 1021.57 1021.56 1021.54 1021.54 1021.57 1021.64 1021.72 1021.79 1021.85
1014.99 1015.71 1016.43 1017.04 1017.44 1017.56 1017.41 1017.05 1016.58 1016.12 1015.77 1015.60 1015.64 1015.86 1016.21 1016.60 1016.97 1017.27 1017.49 1017.64 1017.77 1017.92 1018.11 1018.37 1018.68 1019.01 1019.32 1019.59 1019.80 1019.96 1020.08 1020.19 1020.33 1020.51 1020.72 1020.95 1021.17 1021.36 1021.49 1021.56 1021.59 1021.59 1021.60 1021.63 1021.69 1021.78 1021.88 1021.96 1022.01
1015.63 1016.22 1016.77 1017.19 1017.38 1017.34 1017.08 1016.67 1016.22 1015.83 1015.58 1015.52 1015.65 1015.93 1016.30 1016.69 1017.04 1017.31 1017.51 1017.67 1017.81 1017.99 1018.22 1018.51 1018.83 1019.16 1019.46 1019.71 1019.88 1020.00 1020.10 1020.20 1020.32 1020.50 1020.71 1020.94 1021.15 1021.33 1021.46 1021.53 1021.56 1021.57 1021.60 1021.66 1021.75 1021.86 1021.98 1022.08 1022.13
1016.11 1016.56 1016.92 1017.13 1017.14 1016.96 1016.63 1016.23 1015.84 1015.55 1015.43 1015.48 1015.71 1016.04 1016.43 1016.80 1017.11 1017.35 1017.53 1017.67 1017.83 1018.04 1018.30 1018.62 1018.97 1019.30 1019.59 1019.80 1019.95 1020.04 1020.11 1020.20 1020.32 1020.49 1020.70 1020.93 1021.14 1021.31 1021.43 1021.49 1021.52 1021.55 1021.58 1021.66 1021.77 1021.90 1022.04 1022.15 1022.21
1016.44 1016.72 1016.89 1016.91 1016.77 1016.50 1016.13 1015.76 1015.46 1015.30 1015.31 1015.48 1015.78 1016.16 1016.55 1016.89 1017.16 1017.35 1017.50 1017.64 1017.81 1018.04 1018.33 1018.68 1019.04 1019.38 1019.65 1019.85 1019.98 1020.05 1020.11 1020.19 1020.32 1020.49 1020.71 1020.94 1021.16 1021.33 1021.44 1021.50 1021.52 1021.54 1021.59 1021.67 1021.78 1021.92 1022.07 1022.19 1022.26
1016.64 1016.76 1016.76 1016.63 1016.38 1016.04 1015.67 1015.36 1015.15 1015.10 1015.22 1015.49 1015.85 1016.24 1016.61 1016.92 1017.15 1017.30 1017.42 1017.54 1017.72 1017.97 1018.29 1018.65 1019.02 1019.36 1019.63 1019.82 1019.94 1020.01 1020.07 1020.16 1020.30 1020.49 1020.73 1020.97 1021.20 1021.37 1021.49 1021.54 1021.57 1021.58 1021.62 1021.69 1021.80 1021.94 1022.08 1022.20 1022.27
1016.75 1016.75 1016.62 1016.38 1016.05 1015.68 1015.33 1015.06 1014.93 1014.97 1015.17 1015.49 1015.87 1016.26 1016.61 1016.88 1017.06 1017.17 1017.27 1017.39 1017.57 1017.82 1018.15 1018.53 1018.90 1019.24 1019.50 1019.69 1019.81 1019.89 1019.96 1020.07 1020.24 1020.46 1020.71 1020.98 1021.22 1021.41 1021.53 1021.60 1021.63 1021.65 1021.68 1021.74 1021.84 1021.96 1022.08 1022.18 1022.24
1016.84 1016.76 1016.56 1016.25 1015.88 1015.50 1015.16 1014.93 1014.85 1014.93 1015.15 1015.48 1015.85 1016.21 1016.52 1016.74 1016.88 1016.97 1017.05 1017.16 1017.34 1017.60 1017.93 1018.30 1018.67 1019.00 1019.26 1019.45 1019.58 1019.68 1019.78 1019.91 1020.10 1020.35 1020.63 1020.91 1021.17 1021.38 1021.53 1021.61 1021.66 1021.68 1021.72 1021.77 1021.85 1021.95 1022.04 1022.11 1022.15
1016.96 1016.84 1016.61 1016.29 1015.91 1015.53 1015.20 1014.98 1014.90 1014.97 1015.16 1015.45 1015.77 1016.07 1016.33 1016.51 1016.62 1016.69 1016.76 1016.86 1017.04 1017.29 1017.61 1017.96 1018.32 1018.65 1018.91 1019.11 1019.26 1019.38 1019.51 1019.67 1019.88 1020.14 1020.43 1020.73 1021.00 1021.23 1021.41 1021.52 1021.60 1021.65 1021.70 1021.75 1021.82 1021.89 1021.95 1021.99 1021.98
1017.10 1017.00 1016.78 1016.47 1016.11 1015.75 1015.42 1015.18 1015.06 1015.07 1015.19 1015.39 1015.63 1015.86 1016.05 1016.19 1016.27 1016.33 1016.39 1016.49 1016.65 1016.89 1017.19 1017.53 1017.87 1018.20 1018.47 1018.69 1018.86 1019.01 1019.16 1019.34 1019.56 1019.81 1020.10 1020.40 1020.68 1020.92 1021.13 1021.28 1021.40 1021.49 1021.56 1021.64 1021.70 1021.75 1021.78 1021.78 1021.74
1017.25 1017.19 1017.02 1016.76 1016.44 1016.09 1015.76 1015.49 1015.31 1015.22 1015.23 1015.32 1015.45 1015.58 1015.70 1015.79 1015.84 1015.88 1015.94 1016.02 1016.17 1016.39 1016.67 1016.99 1017.33 1017.66 1017.95 1018.20 1018.42 1018.60 1018.77 1018.95 1019.16 1019.40 1019.66 1019.93 1020.20 1020.45 1020.68 1020.88 1021.04 1021.18 1021.30 1021.40 1021.47 1021.52 1021.53 1021.49 1021.41
1017.36 1017.35 1017.25 1017.06 1016.79 1016.48 1016.15 1015.84 1015.58 1015.39 1015.27 1015.23 1015.24 1015.28 1015.32 1015.35 1015.37 1015.38 1015.41 1015.48 1015.60 1015.79 1016.05 1016.36 1016.70 1017.05 1017.39 1017.68 1017.94 1018.16 1018.36 1018.54 1018.72 1018.92 1019.14 1019.37 1019.61 1019.86 1020.10 1020.33 1020.55 1020.74 1020.91 1021.04 1021.14 1021.19 1021.19 1021.14 1021.04
1017.36 1017.42 1017.39 1017.28 1017.09 1016.82 1016.50 1016.17 1015.84 1015.55 1015.32 1015.15 1015.04 1014.97 1014.92 1014.89 1014.86 1014.84 1014.84 1014.87 1014.96 1015.12 1015.35 1015.66 1016.02 1016.40 1016.78 1017.14 1017.45 1017.72 1017.94 1018.12 1018.27 1018.43 1018.59 1018.77 1018.97 1019.20 1019.45 1019.71 1019.96 1020.21 1020.42 1020.60 1020.73 1020.80 1020.81 1020.76 1020.65
1017.25 1017.36 1017.41 1017.39 1017.28 1017.07 1016.78 1016.43 1016.06 1015.69 1015.36 1015.08 1014.86 1014.68 1014.55 1014.45 1014.36 1014.28 1014.23 1014.22 1014.27 1014.39 1014.60 1014.90 1015.28 1015.71 1016.14 1016.57 1016.94 1017.26 1017.51 1017.69 1017.82 1017.93 1018.04 1018.17 1018.33 1018.54 1018.78 1019.06 1019.35 1019.63 1019.89 1020.11 1020.28 1020.38 1020.41 1020.38 1020.30
1017.02 1017.18 1017.30 1017.36 1017.34 1017.20 1016.96 1016.63 1016.23 1015.81 1015.39 1015.02 1014.70 1014.43 1014.22 1014.03 1013.87 1013.74 1013.62 1013.56 1013.55 1013.64 1013.83 1014.13 1014.52 1014.98 1015.47 1015.96 1016.40 1016.76 1017.04 1017.23 1017.35 1017.43 1017.50 1017.59 1017.72 1017.90 1018.14 1018.43 1018.74 1019.05 1019.35 1019.60 1019.81 1019.94 1020.02 1020.03 1019.98
1016.71 1016.90 1017.09 1017.23 1017.29 1017.23 1017.04 1016.73 1016.33 1015.87 1015.40 1014.95 1014.55 1014.19 1013.90 1013.64 1013.41 1013.20 1013.03 1012.91 1012.85 1012.90 1013.06 1013.35 1013.75 1014.23 1014.76 1015.30 1015.78 1016.18 1016.49 1016.69 1016.81 1016.88 1016.94 1017.01 1017.12 1017.30 1017.54 1017.83 1018.16 1018.49 1018.81 1019.09 1019.32 1019.50 1019.62 1019.69 1019.70
1016.38 1016.59 1016.83 1017.03 1017.16 1017.17 1017.03 1016.75 1016.35 1015.86 1015.34 1014.83 1014.35 1013.92 1013.55 1013.22 1012.93 1012.67 1012.45 1012.28 1012.19 1012.20 1012.33 1012.59 1012.98 1013.47 1014.01 1014.56 1015.07 1015.50 1015.82 1016.04 1016.18 1016.26 1016.32 1016.40 1016.52 1016.71 1016.96 1017.26 1017.59 1017.93 1018.26 1018.56 1018.81 1019.03 1019.19 1019.32 1019.40
1016.08 1016.31 1016.57 1016.83 1017.01 1017.06 1016.95 1016.68 1016.26 1015.74 1015.17 1014.59 1014.04 1013.55 1013.12 1012.75 1012.42 1012.13 1011.88 1011.68 1011.57 1011.55 1011.66 1011.89 1012.26 1012.72 1013.24 1013.77 1014.26 1014.69 1015.02 1015.26 1015.41 1015.52 1015.61 1015.72 1015.88 1016.09 1016.35 1016.66 1017.00 1017.34 1017.66 1017.96 1018.24 1018.47 1018.68 1018.86 1019.01
1015.85 1016.08 1016.37 1016.65 1016.84 1016.91 1016.79 1016.50 1016.04 1015.47 1014.83 1014.19 1013.58 1013.03 1012.56 1012.16 1011.82 1011.53 1011.29 1011.11 1010.99 1010.97 1011.06 1011.27 1011.59 1012.00 1012.47 1012.94 1013.40 1013.79 1014.11 1014.35 1014.53 1014.68 1014.81 1014.97 1015.16 1015.40 1015.69 1016.01 1016.34 1016.66 1016.98 1017.27 1017.54 1017.80 1018.04 1018.26 1018.47
1015.70 1015.93 1016.22 1016.50 1016.68 1016.71 1016.56 1016.20 1015.68 1015.03 1014.31 1013.59 1012.93 1012.34 1011.85 1011.45 1011.13 1010.88 1010.69 1010.55 1010.48 1010.48 1010.57 1010.75 1011.02 1011.37 1011.76 1012.16 1012.54 1012.88 1013.17 1013.41 1013.60 1013.77 1013.95 1014.15 1014.39 1014.66 1014.96 1015.27 1015.59 1015.90 1016.19 1016.46 1016.73 1016.98 1017.24 1017.50 1017.74
1015.59 1015.82 1016.10 1016.35 1016.50 1016.47 1016.24 1015.80 1015.18 1014.43 1013.63 1012.84 1012.13 1011.51 1011.03 1010.66 1010.39 1010.22 1010.11 1010.05 1010.04 1010.09 1010.19 1010.36 1010.59 1010.87 1011.18 1011.49 1011.79 1012.06 1012.31 1012.52 1012.71 1012.91 1013.11 1013.35 1013.61 1013.89 1014.19 1014.49 1014.77 1015.05 1015.30 1015.55 1015.79 1016.05 1016.31 1016.58 1016.85
1015.49 1015.72 1015.98 1016.19 1016.28 1016.17 1015.85 1015.31 1014.59 1013.75 1012.86 1012.01 1011.26 1010.64 1010.18 1009.86 1009.67 1009.59 1009.58 1009.62 1009.70 1009.82 1009.96 1010.13 1010.33 1010.55 1010.78 1011.01 1011.23 1011.44 1011.63 1011.81 1011.99 1012.18 1012.39 1012.63 1012.89 1013.16 1013.43 1013.69 1013.94 1014.16 1014.38 1014.59 1014.81 1015.05 1015.31 1015.59 1015.87
1015.36 1015.59 1015.83 1015.99 1016.01 1015.82 1015.41 1014.77 1013.96 1013.04 1012.10 1011.22 1010.46 1009.85 1009.43 1009.18 1009.08 1009.09 1009.19 1009.34 1009.51 1009.69 1009.88 1010.07 1010.25 1010.44 1010.61 1010.78 1010.93 1011.08 1011.22 1011.36 1011.52 1011.69 1011.89 1012.10 1012.33 1012.55 1012.77 1012.97 1013.16 1013.33 1013.49 1013.67 1013.87 1014.10 1014.35 1014.63 1014.91
1015.20 1015.42 1015.63 1015.74 1015.69 1015.43 1014.95 1014.24 1013.38 1012.42 1011.47 1010.58 1009.84 1009.27 1008.90 1008.72 1008.70 1008.81 1009.00 1009.23 1009.48 1009.72 1009.95 1010.16 1010.35 1010.52 1010.66 1010.79 1010.90 1011.01 1011.12 1011.23 1011.36 1011.49 1011.65 1011.81 1011.97 1012.13 1012.27 1012.40 1012.51 1012.62 1012.74 1012.88 1013.07 1013.29 1013.54 1013.82 1014.11
1015.01 1015.21 1015.38 1015.45 1015.35 1015.04 1014.51 1013.78 1012.90 1011.96 1011.03 1010.19 1009.50 1008.99 1008.69 1008.57 1008.62 1008.79 1009.03 1009.31 1009.61 1009.89 1010.15 1010.38 1010.58 1010.74 1010.88 1011.00 1011.11 1011.20 1011.29 1011.38 1011.48 1011.58 1011.68 1011.78 1011.86 1011.93 1011.98 1012.02 1012.06 1012.11 1012.19 1012.31 1012.49 1012.71 1012.98 1013.27 1013.57
1014.82 1014.99 1015.12 1015.14 1015.00 1014.65 1014.11 1013.40 1012.56 1011.68 1010.83 1010.07 1009.47 1009.04 1008.80 1008.74 1008.82 1009.01 1009.27 1009.57 1009.86 1010.15 1010.41 1010.64 1010.85 1011.03 1011.18 1011.32 1011.44 1011.55 1011.64 1011.73 1011.81 1011.87 1011.92 1011.95 1011.96 1011.94 1011.91 1011.87 1011.84 1011.84 1011.89 1012.00 1012.19 1012.43 1012.72 1013.04 1013.36
1014.67 1014.79 1014.86 1014.83 1014.65 1014.29 1013.75 1013.08 1012.32 1011.54 1010.80 1010.16 1009.67 1009.33 1009.16 1009.13 1009.23 1009.40 1009.64 1009.89 1010.15 1010.41 1010.64 1010.87 1011.07 1011.27 1011.45 1011.62 1011.77 1011.91 1012.03 1012.14 1012.21 1012.26 1012.27 1012.25 1012.20 1012.11 1012.01 1011.91 1011.84 1011.81 1011.84 1011.96 1012.15 1012.42 1012.75 1013.10 1013.45
Thickness
5737 5742 5742 5733 5711 5692 5693 5706 5715 5718 5722 5729 5730 5724 5715 5711 5708 5704 5716 5720 5717 5712 5708 5706 5704 5702 5700 5699 5698 5697 5697 5696 5696 5696 5695 5694 5693 5693 5692 5692 5691 5690 5690 5689 5688 5687 5686 5686 5685
5735 5738 5732 5716 5692 5679 5689 5707 5712 5720 5727 5731 5729 5722 5714 5712 5717 5716 5717 5718 5717 5713 5709 5706 5704 5702 5700 5699 5698 5697 5696 5696 5696 5695 5694 5693 5692 5691 5691 5690 5689 5689 5688 5687 5686 5685 5684 5683 5683
5733 5733 5716 5699 5687 5682 5694 5708 5713 5723 5731 5731 5723 5720 5715 5713 5718 5718 5721 5719 5716 5712 5709 5706 5704 5702 5700 5699 5698 5697 5696 5695 5695 5694 5693 5692 5691 5690 5689 5689 5688 5687 5686 5686 5685 5683 5682 5682 5681
5721 5715 5704 5689 5689 5698 5705 5710 5716 5720 5726 5729 5721 5712 5716 5723 5723 5723 5722 5719 5715 5711 5708 5706 5704 5702 5700 5699 5697 5697 5696 5695 5694 5693 5692 5691 5690 5689 5688 5687 5686 5685 5685 5684 5683 5682 5681 5680 5679
5710 5697 5686 5678 5688 5702 5711 5716 5718 5718 5719 5723 5718 5708 5711 5722 5727 5724 5720 5717 5714 5710 5707 5705 5703 5701 5700 5698 5697 5696 5695 5694 5693 5692 5692 5690 5689 5688 5687 5686 5685 5684 5683 5682 5681 5680 5679 5678 5677
5691 5683 5670 5669 5683 5700 5710 5717 5717 5716 5717 5720 5714 5706 5708 5719 5722 5720 5719 5716 5713 5710 5706 5704 5702 5701 5699 5698 5697 5696 5695 5694 5693 5692 5691 5689 5688 5687 5686 5685 5684 5683 5682 5681 5679 5678 5677 5676 5675
5678 5671 5667 5674 5680 5692 5708 5717 5714 5713 5714 5717 5718 5704 5705 5712 5718 5719 5716 5714 5711 5708 5705 5703 5701 5700 5699 5698 5696 5695 5694 5693 5692 5691 5690 5688 5687 5686 5685 5684 5683 5682 5680 5679 5678 5677 5676 5675 5674
5678 5668 5669 5671 5678 5689 5708 5714 5717 5716 5715 5723 5720 5705 5702 5712 5717 5716 5713 5710 5708 5706 5704 5702 5701 5699 5698 5697 5696 5695 5693 5692 5691 5690 5689 5687 5686 5685 5684 5682 5681 5680 5679 5678 5677 5675 5674 5673 5672
5676 5658 5659 5671 5678 5690 5704 5707 5714 5721 5718 5718 5719 5718 5720 5719 5715 5711 5707 5705 5704 5704 5703 5702 5700 5699 5698 5696 5695 5694 5692 5691 5690 5689 5687 5686 5685 5683 5682 5681 5680 5679 5678 5677 5675 5674 5673 5671 5670
5661 5651 5665 5680 5685 5690 5698 5702 5706 5708 5707 5707 5709 5714 5718 5715 5712 5709 5706 5704 5703 5702 5702 5702 5700 5699 5697 5696 5694 5693 5691 5690 5689 5688 5686 5685 5684 5682 5681 5680 5679 5678 5677 5675 5674 5673 5671 5670 5669
5657 5657 5670 5678 5685 5689 5692 5696 5703 5700 5697 5704 5706 5707 5709 5709 5708 5707 5707 5706 5706 5705 5703 5702 5701 5699 5697 5695 5694 5692 5691 5689 5688 5687 5686 5684 5682 5681 5680 5678 5677 5676 5675 5674 5672 5671 5670 5669 5667
5651 5659 5668 5674 5680 5682 5685 5690 5693 5697 5703 5712 5713 5712 5708 5706 5706 5707 5706 5706 5705 5704 5703 5703 5701 5699 5697 5696 5694 5692 5690 5689 5687 5686 5685 5683 5681 5680 5679 5677 5676 5675 5674 5672 5671 5669 5668 5667 5666
5643 5652 5661 5667 5671 5675 5680 5681 5685 5693 5703 5707 5707 5705 5704 5705 5705 5707 5708 5707 5705 5704 5704 5703 5702 5700 5698 5695 5694 5692 5690 5689 5687 5686 5684 5683 5681 5679 5678 5676 5675 5674 5672 5670 5669 5667 5666 5665 5664
5636 5643 5649 5656 5661 5667 5669 5673 5678 5689 5697 5697 5698 5698 5700 5702 5703 5703 5703 5704 5704 5705 5705 5704 5702 5701 5698 5696 5694 5693 5691 5689 5687 5686 5684 5682 5681 5679 5677 5675 5673 5672 5671 5669 5668 5666 5665 5663 5662
5627 5628 5635 5645 5652 5658 5659 5659 5671 5686 5688 5688 5690 5692 5695 5699 5701 5702 5705 5706 5706 5706 5706 5704 5703 5701 5699 5697 5695 5693 5691 5689 5687 5685 5684 5682 5680 5678 5676 5674 5673 5671 5669 5668 5666 5664 5662 5661 5660
5611 5612 5616 5635 5643 5648 5643 5647 5671 5678 5678 5679 5683 5686 5690 5694 5699 5703 5705 5706 5706 5705 5704 5704 5703 5701 5699 5697 5695 5693 5691 5689 5687 5685 5683 5681 5680 5678 5675 5673 5672 5670 5668 5666 5663 5661 5659 5658 5657
5593 5597 5607 5622 5634 5637 5634 5642 5663 5670 5670 5672 5676 5681 5685 5690 5694 5699 5702 5704 5705 5705 5704 5702 5701 5700 5698 5696 5694 5692 5690 5688 5686 5684 5682 5681 5679 5676 5674 5672 5670 5667 5665 5663 5661 5659 5657 5655 5654
5584 5590 5600 5609 5623 5624 5626 5636 5651 5660 5663 5666 5670 5675 5679 5685 5692 5698 5699 5701 5702 5702 5701 5700 5699 5697 5695 5693 5690 5688 5687 5686 5684 5683 5681 5679 5677 5675 5672 5670 5668 5665 5662 5660 5657 5655 5653 5651 5649
5579 5584 5590 5602 5612 5612 5616 5627 5639 5647 5653 5659 5663 5668 5675 5682 5690 5694 5696 5697 5696 5696 5696 5696 5695 5694 5691 5688 5686 5684 5683 5683 5682 5681 5679 5677 5675 5672 5670 5668 5665 5662 5659 5657 5654 5652 5649 5647 5644
5564 5569 5578 5588 5597 5599 5603 5613 5628 5637 5646 5655 5661 5666 5671 5676 5681 5686 5689 5691 5691 5692 5692 5692 5691 5690 5689 5688 5686 5683 5681 5680 5679 5677 5676 5674 5672 5670 5667 5665 5662 5659 5656 5653 5650 5647 5645 5642 5639
5554 5560 5568 5572 5580 5585 5587 5595 5613 5629 5639 5649 5657 5664 5668 5672 5675 5679 5682 5684 5684 5685 5687 5688 5688 5687 5686 5684 5680 5677 5674 5673 5672 5672 5672 5671 5668 5666 5664 5661 5659 5656 5653 5650 5647 5644 5640 5637 5634
5545 5557 5559 5558 5556 5559 5570 5571 5601 5617 5628 5641 5651 5656 5662 5667 5671 5673 5675 5676 5678 5680 5681 5682 5681 5680 5679 5677 5675 5672 5670 5669 5670 5669 5667 5665 5663 5661 5659 5656 5654 5651 5648 5646 5642 5639 5636 5632 5628
5539 5548 5547 5546 5544 5543 5553 5555 5585 5605 5618 5636 5647 5653 5657 5661 5664 5667 5669 5670 5671 5672 5672 5673 5672 5671 5671 5670 5669 5666 5665 5664 5663 5661 5659 5658 5656 5654 5652 5650 5648 5645 5643 5640 5637 5633 5630 5627 5624
5528 5529 5529 5529 5526 5526 5549 5545 5569 5593 5618 5632 5640 5646 5650 5653 5656 5659 5660 5660 5661 5662 5662 5663 5662 5662 5661 5661 5660 5658 5657 5655 5653 5652 5651 5649 5648 5646 5644 5642 5640 5638 5636 5633 5630 5627 5623 5620 5617
5512 5508 5503 5502 5504 5518 5545 5542 5570 5596 5613 5624 5632 5637 5641 5644 5645 5646 5647 5648 5649 5650 5651 5651 5652 5651 5651 5650 5650 5649 5648 5647 5645 5643 5641 5640 5638 5637 5635 5633 5632 5630 5628 5625 5622 5619 5616 5613 5609
5504 5503 5499 5497 5502 5511 5526 5536 5571 5593 5604 5614 5621 5625 5629 5631 5634 5635 5637 5638 5639 5639 5639 5639 5640 5640 5640 5639 5639 5638 5638 5636 5635 5633 5632 5630 5629 5628 5626 5623 5622 5620 5618 5616 5613 5610 5607 5603 5600
5494 5495 5502 5496 5495 5499 5509 5529 5557 5581 5590 5599 5603 5607 5612 5616 5619 5621 5623 5625 5626 5627 5627 5627 5628 5628 5627 5627 5627 5626 5626 5625 5623 5622 5621 5619 5618 5617 5615 5613 5611 5609 5607 5605 5602 5598 5595 5592 5589
5492 5493 5487 5482 5479 5487 5502 5517 5544 5568 5576 5581 5585 5590 5595 5598 5601 5605 5607 5609 5611 5612 5612 5612 5613 5613 5613 5613 5613 5613 5612 5611 5611 5609 5608 5607 5606 5604 5602 5601 5599 5597 5595 5592 5589 5586 5582 5579 5575
5478 5480 5482 5482 5480 5486 5492 5516 5545 5556 5562 5565 5570 5575 5579 5580 5583 5585 5588 5590 5592 5594 5595 5596 5596 5597 5597 5597 5597 5597 5597 5596 5596 5595 5594 5593 5592 5590 5588 5587 5585 5584 5581 5578 5575 5572 5569 5565 5561
5473 5476 5475 5471 5470 5480 5492 5513 5539 5542 5546 5551 5555 5559 5561 5564 5565 5567 5570 5571 5573 5575 5577 5578 5579 5580 5581 5581 5581 5581 5581 5580 5579 5579 5578 5577 5576 5575 5573 5572 5570 5569 5566 5564 5561 5557 5554 5550 5547